Regional Weather Roundup
Issued by NWS

Home | Current Version | Previous Version | Text Only | Print | Product List | Glossary On
Versions: 1 2 3 4 5 6 7 8 9 10 11 12 13 14 15 16 17 18 19 20 21 22 23 24 25 26 27 28 29 30 31 32 33 34 35 36 37 38 39 40 41 42 43 44 45 46 47 48 49 50
000
ASUS44 KFWD 271315
RWRTX
NORTH TEXAS HOURLY WEATHER ROUNDUP
NATIONAL WEATHER SERVICE FORT WORTH TX
800 AM CDT THU APR 27 2017

NOTE: "FAIR" INDICATES FEW OR NO CLOUDS BELOW 12,000 FEET WITH NO
SIGNIFICANT WEATHER AND/OR OBSTRUCTIONS TO VISIBILITY.

TXZ118-119-271400-
DALLAS/FORT WORTH METROPLEX

CITY           SKY/WX    TMP DP  RH WIND       PRES   REMARKS
DFW AIRPORT    CLOUDY    54  50  86 SW10      29.80R
DALLAS LOVE    CLOUDY    53  47  79 SW6       29.82R
FTW MEACHAM    CLOUDY    52  48  86 S7        29.80R
DAL-EXECUTIVE  CLOUDY    52  49  89 S6        29.82R
FTW-ALLIANCE   CLOUDY    51  49  92 S5        29.80R
FTW-NAS-JRB    PTSUNNY   53  47  79 S6        29.81R
FTW-SPINKS     SUNNY     52  46  82 S5        29.83R
ARLINGTON      MOSUNNY   52  47  83 S6        29.82R
GRAND PRAIRIE  SUNNY     52  46  82 S7        29.83R
ADDISON        PTSUNNY   52  46  82 S9        29.81R
MESQUITE       SUNNY     48  48 100 S6        29.81R
LANCASTER      CLOUDY    48  47  97 SW6       29.85R
$$

TXZ091>094-102>105-117-120-121-131>134-271400-
NORTH CENTRAL TEXAS

CITY           SKY/WX    TMP DP  RH WIND       PRES   REMARKS
SHRMAN/DENISON MOSUNNY   50  46  87 E3        29.76F
GAINESVILLE    CLOUDY    46  45  94 SW7       29.81R
BOWIE          MOSUNNY   48  47  95 S5        29.79R
BRIDGEPORT     CLOUDY    48  46  93 CALM      29.81S
DECATUR        MOSUNNY   51  44  75 SW8       29.80R
DENTON         CLOUDY    48  48 100 SW6       29.81R
MCKINNEY       MOSUNNY   49  49 100 S6        29.78R
BONHAM         CLOUDY    48  46  93 SE5       29.79S
GREENVILLE     CLOUDY    52  50  93 E5        29.78S
ROCKWALL       CLOUDY    52  48  87 S5        29.80R
TERRELL        CLOUDY    50  46  86 S5        29.81R
WAXAHACHIE     CLOUDY    50  50 100 S7        29.85R
CLEBURNE       CLOUDY    50  50 100 S7        29.83S
GRANBURY       CLOUDY    51  46  83 SE3       29.83R
$$

TXZ083>090-098>101-113>116-127>130-139>142-154-155-271400-
WESTERN NORTH TEXAS

CITY           SKY/WX    TMP DP  RH WIND       PRES   REMARKS
WICHITA FALLS  MOSUNNY   51  43  74 SW10      29.77R
VERNON         MOSUNNY   51  41  68 SW7       29.76S
ABILENE        CLOUDY    50  42  74 SE8       29.78R
ABILENE-DYESS  CLOUDY    52  43  70 SW7       29.76R
GRAHAM         MOSUNNY   46  46 100 CALM      29.78R
BRECKENRIDGE   CLOUDY    51  44  76 SE6       29.78S
CISCO          CLOUDY    48  43  81 S9        29.79R
RANGER         CLOUDY    48  44  86 CALM      29.79F
MINERAL WELLS  SUNNY     47  44  90 SE3       29.79S
STEPHENVILLE   MOSUNNY   48  45  88 CALM      29.82F
COMANCHE       CLOUDY    50  47  92 S5        29.81R
BROWNWOOD      CLOUDY    48  46  93 CALM      29.80S
COLEMAN        SUNNY     48  42  80 CALM      29.78S
$$

TXZ143>147-156>162-174-175-271400-
CENTRAL TEXAS

CITY           SKY/WX    TMP DP  RH WIND       PRES   REMARKS
WACO           CLOUDY    53  51  93 S6        29.83R
WACO-MCGREGOR  CLOUDY    51  48  89 CALM      29.84R
HILLSBORO      SUNNY     50  48  93 SE5       29.83R
CORSICANA      SUNNY     51  49  92 S6        29.85R
MEXIA          SUNNY     50  47  90 S7        29.84S
HEARNE         SUNNY     52  52  97 CALM      29.85F
CAMERON        SUNNY     53  48  85 CALM      29.84S
TEMPLE         SUNNY     51  49  92 S5        29.84R
KILLEEN        CLOUDY    53  47  79 SE8       29.81R
KILLEEN-SKYLRK SUNNY     54  48  80 SE6       29.83R
FORT HOOD      PTSUNNY   53  47  82 S5        29.79R
GATESVILLE     CLOUDY    52  46  82 CALM      29.85R
HAMILTON       MOSUNNY   53  49  86 S8        29.82R
LAMPASAS       CLOUDY    50  47  89 CALM      29.81R
$$

TXZ095>097-106>112-122>126-135>138-148>153-164>167-271400-
EAST TEXAS

CITY           SKY/WX    TMP DP  RH WIND       PRES   REMARKS
PARIS          SUNNY     48  45  87 E3        29.80R
SULPHUR SPRNGS SUNNY     50  50 100 E3        29.81S
MOUNT PLEASANT SUNNY     47  47 100 E3        29.83S
GILMER         SUNNY     48  48  97 CALM      29.81F
MINEOLA        SUNNY     48  46  93 CALM      29.79S
TYLER          SUNNY     53  49  86 E7        29.79S
LONGVIEW       SUNNY     52  50  93 CALM      29.82R
MARSHALL       SUNNY     50  48  93 CALM      29.85S
ATHENS         SUNNY     48  48 100 SW5       29.82R
PALESTINE      SUNNY     50  49  97 SE6       29.82S
JACKSONVILLE   SUNNY     50  49  96 SE3       29.84R
HENDERSON      SUNNY     49  49 100 SE5       29.84R
CENTER         SUNNY     53  51  95 CALM      29.86R
NACOGDOCHES    SUNNY     46  45  93 CALM      29.84R
LUFKIN         SUNNY     51  49  92 CALM      29.86R
$$

SUPPLEMENTAL OBSERVATIONS (CENTRAL)

CITY           SKY/WX    TMP DP  RH WIND       PRES   REMARKS
DENISON DAM      N/A     48  45  87 E3          N/A
CADDO GRASSLND   N/A     52  46  82 S1          N/A
PAT MAYSE LAKE   N/A     46  45  93 SE6         N/A
GREENVILLE       N/A     52  48  87 E3          N/A
CEDAR HILL       N/A     52  48  87 S3          N/A
ATHENS           N/A     54  48  82 S5          N/A
LAKE LIMESTONE   N/A     55  50  82 S2          N/A
MCGREGOR         N/A     54  48  82 S3          N/A
TEMPLE           N/A     54  48  82 S2          N/A
$$

SUPPLEMENTAL OBSERVATIONS (WEST)

CITY           SKY/WX    TMP DP  RH WIND       PRES   REMARKS
MILLERS CREEK    N/A     54  43  66 SW7         N/A
POSSUM KINGDOM   N/A     54  45  71 S6          N/A
LBJ GRASSLAND    N/A     46  41  81 S3          N/A
GRANBURY         N/A     52  45  76 SE3         N/A
COMANCHE         N/A     52  46  82 S6          N/A
HAMBY            N/A     54  39  58 SE5         N/A
IVIE RESERVOIR   N/A     54  43  66 E6          N/A
COLORADO BEND    N/A     54  46  76 S6          N/A
$$

SUPPLEMENTAL OBSERVATIONS (EAST)

CITY           SKY/WX    TMP DP  RH WIND       PRES   REMARKS
CLARKSVILLE      N/A     52  50  93 CALM        N/A
TEXARKANA        N/A     52  50  93 CALM        N/A
LINDEN           N/A     54  48  82 CALM        N/A
CADDO LAKE       N/A     54  50  87 CALM        N/A
GILMER           N/A     52  48  87 SE1         N/A
HENDERSON        N/A     52  48  87 S3          N/A
LUFKIN           N/A     54  50  87 MISG        N/A
N SABINE NF      N/A     46  45  93 MISG        N/A
S SABINE NF      N/A     57  45  62 NE5         N/A
$$

SUPPLEMENTAL OBSERVATIONS ARE A COLLECTION OF AUTOMATED INSTRUMENTS
THAT ARE MAINTAINED BY A VARIETY OF FEDERAL AND STATE AGENCIES.
CERTAIN ELEMENTS...SUCH AS HUMIDITY VALUES AND SUSTAINED WIND
SPEEDS...MAY BE APPROXIMATED.





USA.gov is the U.S. government's official web portal to all federal, state and local government web resources and services.